GEFSSE_500_meanwind_162.txt.gz
Wind_Speed
3 3 3 3 2 1 1 1 1 2 2 3 3 4 5 5 6 7 7 7 7 7 7 7 7 7 6 6 7 7 6 6 6 6 6 6 6 6 6 6 6 6 6
5 4 4 4 3 2 2 2 2 2 2 2 3 3 4 4 5 5 6 6 6 5 5 6 6 5 5 5 5 6 6 6 6 6 6 6 6 6 6 6 6 6 6
6 5 5 4 4 3 3 2 2 2 2 2 2 2 3 3 4 4 4 4 4 4 4 4 4 4 4 4 4 4 5 5 5 5 5 5 5 5 5 5 6 6 6
7 6 6 5 5 4 4 3 3 3 2 2 2 2 2 2 3 3 3 3 3 3 3 3 3 3 3 3 3 3 3 4 4 4 4 4 4 4 5 5 5 5 5
8 8 7 7 6 6 5 4 4 3 3 3 3 2 2 2 2 2 2 2 2 2 2 2 2 2 2 2 2 2 2 3 3 3 3 3 3 3 4 4 4 5 5
9 9 9 8 8 7 6 5 5 4 4 3 3 3 2 2 1 1 1 1 1 1 1 1 1 1 1 1 1 1 1 1 1 1 1 1 2 2 3 3 3 4 4
9 10 10 9 9 8 7 7 6 5 5 5 4 3 2 2 2 1 1 1 1 1 1 1 1 1 1 1 1 1 1 1 1 0 0 0 1 1 2 2 2 2 3
10 11 11 11 10 9 9 8 7 7 6 5 5 4 3 3 2 2 1 1 1 1 1 2 2 2 2 2 2 2 2 2 2 2 2 1 1 1 1 1 1 1 2
10 11 11 12 12 10 10 9 8 8 7 6 6 4 4 3 2 2 2 1 2 2 2 2 2 3 3 3 3 3 3 3 3 3 3 2 2 2 2 2 2 2 2
10 11 12 13 13 12 11 11 10 9 8 7 6 5 4 4 3 3 2 2 2 2 2 2 3 3 4 4 4 3 3 3 4 4 4 4 3 3 3 3 3 4 3
12 12 12 14 14 12 12 12 11 10 9 8 8 6 5 5 4 3 3 3 3 3 2 3 3 3 3 3 4 3 3 3 3 4 4 4 4 4 4 4 4 4 4
12 13 13 14 14 13 13 13 12 11 11 10 9 7 6 5 5 4 3 4 4 3 2 2 3 3 3 3 4 4 3 3 4 4 3 4 4 4 4 4 5 5 5
13 14 14 14 14 14 13 14 13 12 11 10 10 8 7 6 5 5 4 4 4 3 2 2 2 3 3 3 3 3 3 3 3 4 3 3 3 4 5 5 5 6 6
13 13 14 14 14 14 14 14 14 13 12 11 10 9 8 7 6 5 4 4 3 3 2 2 2 2 3 3 3 3 2 3 4 3 4 4 4 4 5 5 5 6 6
15 14 14 15 15 15 15 14 13 13 13 12 11 9 8 7 6 6 5 4 4 3 2 2 2 2 2 2 2 2 2 2 2 3 3 3 3 4 5 6 6 6 6
15 14 15 15 15 16 15 16 15 14 13 12 11 10 9 8 7 7 6 5 4 3 3 2 2 1 1 1 1 1 2 2 2 2 2 3 3 4 5 5 6 6 7
16 15 15 15 16 16 16 17 16 15 14 13 12 11 9 8 8 7 6 5 4 3 3 2 2 2 1 1 1 1 1 1 1 1 2 3 4 4 5 5 5 6 6
16 16 16 15 16 16 16 17 17 17 15 14 14 12 10 9 8 8 7 5 4 4 3 3 2 2 2 1 2 1 1 1 1 1 2 4 4 5 5 5 6 6 7
15 15 16 16 16 16 17 18 18 17 16 15 14 12 11 10 8 8 7 6 5 4 3 3 2 2 2 2 1 1 1 1 1 2 2 4 5 5 5 5 6 6 7
16 15 16 16 15 16 17 17 18 18 17 16 15 13 12 10 9 9 8 7 5 4 4 3 3 2 2 1 1 1 0 1 2 2 3 4 5 6 6 6 6 6 7
15 15 16 16 16 17 17 16 16 18 17 16 15 13 12 11 10 8 8 8 6 5 4 3 2 2 2 1 1 0 0 1 2 3 4 5 5 6 6 6 7 7 7
14 15 15 14 14 15 16 16 17 18 18 17 15 14 12 11 10 9 8 8 6 5 4 3 3 2 1 1 0 0 1 2 3 4 4 5 6 6 6 6 6 6 7
14 14 15 14 13 14 15 15 16 17 18 17 16 15 14 12 11 9 9 8 7 6 5 4 4 3 1 1 1 1 2 2 3 4 5 5 6 7 7 7 8 7 7
13 14 14 13 13 15 15 14 15 16 17 17 17 16 15 14 12 11 10 9 8 6 5 4 4 3 2 2 2 2 3 3 4 5 6 6 6 7 7 7 8 8 8
13 13 13 13 13 14 15 15 15 15 16 18 18 17 15 14 13 12 11 9 8 6 6 5 5 4 3 3 2 3 3 4 5 6 7 7 8 8 8 8 8 8 8
11 11 11 12 13 15 15 15 15 16 16 17 18 18 16 15 14 13 12 10 8 8 7 6 5 5 4 4 3 3 4 5 6 7 8 8 9 9 9 9 9 9 9

GEFSSE_500_meanwind_168.txt.gz
Wind_Speed
2 2 2 3 3 4 4 4 4 3 3 4 4 4 4 4 5 5 6 5 5 5 5 5 5 5 5 5 5 6 6 6 6 6 6 6 7 7 7 7 7 7 7
1 1 1 1 2 2 3 3 3 3 3 3 3 3 3 4 4 4 4 4 4 4 4 4 4 4 5 5 5 5 5 5 6 6 6 6 7 7 6 7 7 7 7
1 0 0 1 1 2 2 2 2 2 2 2 2 2 3 3 3 3 2 3 3 3 3 3 3 3 4 4 4 4 5 5 5 5 5 6 6 6 6 6 7 7 6
2 1 1 1 1 1 2 2 2 1 1 1 1 1 2 2 2 2 1 2 2 2 2 2 2 2 3 3 3 3 4 4 4 4 5 5 5 5 5 6 6 6 6
2 2 2 2 2 2 2 2 1 1 1 1 1 1 1 1 1 1 1 1 1 1 1 1 2 2 2 2 2 3 3 3 3 4 4 4 4 5 5 5 5 5 5
3 3 3 3 4 3 3 2 2 1 0 1 1 1 1 1 1 1 1 0 0 0 1 1 1 1 1 2 2 2 2 2 2 3 3 3 3 4 4 4 4 4 4
3 4 4 4 5 4 4 3 3 2 1 1 1 1 1 1 1 1 1 1 1 1 1 1 1 1 1 1 1 1 1 1 1 2 2 2 2 3 3 3 3 3 3
4 5 5 5 5 5 5 4 4 3 2 1 1 1 1 1 1 0 0 1 1 1 2 2 2 1 1 1 1 1 1 1 1 1 1 1 1 2 2 2 2 2 2
5 5 5 6 6 7 6 5 4 4 3 2 2 2 1 1 1 1 1 1 1 2 2 2 2 1 1 1 1 1 1 2 1 1 1 1 1 1 1 2 2 2 1
5 5 5 6 7 8 8 6 5 5 4 3 3 3 2 2 2 2 2 2 2 2 2 2 2 2 1 1 1 2 1 2 1 1 1 1 1 1 1 1 2 2 2
6 6 6 6 7 7 8 8 7 6 5 4 3 3 3 2 2 2 2 2 2 3 2 2 2 1 1 1 1 2 1 1 1 1 1 1 1 1 1 1 2 2 2
6 5 6 6 7 7 8 9 8 8 7 5 4 4 3 3 2 2 2 2 2 3 2 2 1 1 1 1 1 1 1 1 1 1 1 1 1 1 1 2 2 2 3
6 6 6 6 7 7 9 9 9 9 8 7 6 5 5 4 4 3 3 3 3 2 2 1 1 1 0 1 1 1 1 1 1 0 1 1 1 2 2 2 2 3 3
5 5 6 7 7 8 9 10 10 9 10 9 7 6 6 5 5 4 4 3 2 2 1 1 1 1 0 0 1 0 0 1 2 2 1 1 1 1 2 3 2 2 3
6 6 6 7 7 8 9 10 10 10 10 10 8 7 6 6 5 5 4 3 2 2 1 1 0 1 1 1 1 1 1 1 2 2 2 2 2 2 2 3 3 2 2
7 7 7 7 7 8 9 10 10 11 11 11 9 8 7 7 6 5 4 3 3 2 1 1 0 1 1 1 1 1 1 1 1 2 2 2 2 2 2 3 3 3 3
7 7 7 7 7 8 9 10 11 11 12 12 11 9 9 8 6 6 5 4 4 3 2 1 1 1 1 1 0 1 1 1 1 2 1 2 2 2 2 3 3 3 3
8 8 7 8 8 9 10 10 11 11 12 13 12 11 9 8 7 6 6 5 4 4 3 2 2 1 1 1 1 0 0 0 1 1 1 1 1 2 2 3 3 4 4
8 8 7 8 9 9 10 11 11 11 12 13 13 12 10 9 8 7 6 6 5 5 4 3 2 2 1 1 1 1 0 0 1 1 1 1 1 2 3 3 3 4 4
8 8 8 8 10 10 10 11 11 11 12 13 13 13 11 10 9 8 7 7 6 5 5 4 3 3 2 1 1 1 1 1 1 1 1 2 2 2 3 3 4 3 3
9 8 8 9 10 11 11 12 12 12 12 14 14 13 12 10 10 9 9 8 7 6 6 5 4 3 2 2 1 1 1 1 1 1 1 1 1 1 2 3 4 4 4
10 9 9 10 10 10 11 12 13 12 13 13 14 14 13 12 11 10 9 9 8 8 7 6 5 4 3 2 2 2 2 1 1 1 1 1 1 2 2 3 3 4 4
10 9 9 10 10 10 11 12 12 12 13 14 15 15 15 13 12 11 10 9 9 9 8 7 5 4 4 3 2 2 2 2 1 1 1 1 2 2 3 4 3 3 4
10 10 10 10 11 11 12 12 12 12 13 14 15 15 15 15 14 12 11 11 10 9 8 7 7 6 5 4 3 2 2 2 1 0 1 1 2 3 4 4 4 4 5
10 10 10 11 12 13 12 13 13 13 14 14 15 15 15 15 14 13 12 12 11 10 9 8 7 7 6 5 4 3 3 2 1 1 1 2 3 3 4 4 5 6 5
10 10 11 10 12 12 13 13 13 14 14 14 15 16 16 16 15 14 13 12 12 11 10 9 8 7 6 5 4 4 3 2 2 2 3 3 4 4 4 5 5 6 7

GEFSSE_500_meanwind_174.txt.gz
Wind_Speed
4 3 3 4 6 7 8 10 11 11 11 10 10 10 10 9 9 9 9 9 8 8 8 7 7 7 7 7 7 7 7 7 7 7 7 6 6 6 6 6 6 6 6
3 3 2 4 5 6 8 9 10 10 10 10 9 9 9 8 8 8 7 7 7 7 6 6 6 6 6 6 6 6 6 6 6 6 6 6 6 6 6 6 6 7 7
3 2 2 3 4 6 7 8 9 9 9 9 8 8 8 7 7 6 6 6 6 6 6 5 5 5 5 5 6 6 6 6 6 6 6 6 5 6 6 6 6 6 6
3 2 1 2 4 5 6 7 8 8 8 7 7 7 6 6 6 5 5 5 5 5 5 5 5 5 5 5 5 5 5 5 5 5 5 5 5 5 5 5 5 6 6
2 1 0 2 3 4 5 6 7 7 7 7 6 6 5 5 5 5 5 4 4 4 5 5 4 4 4 4 4 4 4 4 4 4 4 4 5 5 5 4 5 5 5
3 2 0 1 3 4 4 5 6 6 6 6 6 5 5 4 4 4 4 4 4 4 4 4 4 4 4 4 4 4 4 4 3 4 3 3 4 4 4 4 4 4 4
3 2 1 1 3 3 4 4 5 5 5 5 5 4 4 4 3 4 3 3 3 4 4 4 4 3 3 3 3 3 3 3 3 3 3 3 3 3 3 3 3 2 3
2 2 2 2 3 3 4 4 5 5 5 5 4 3 3 3 3 3 3 3 3 3 3 3 3 3 3 3 3 3 3 3 3 3 2 2 2 2 2 2 2 2 2
3 3 3 3 3 4 4 4 4 4 5 4 4 3 2 2 2 2 2 2 3 3 3 3 3 2 2 2 2 2 2 3 3 2 2 2 2 2 1 1 1 1 1
3 2 2 3 4 4 4 4 4 4 4 4 3 3 2 2 2 1 1 2 2 3 3 3 2 2 2 2 2 2 1 2 2 2 2 2 2 2 2 1 1 1 1
3 2 2 3 5 5 5 5 5 5 4 3 3 3 2 2 1 1 1 1 2 3 3 3 2 2 2 2 2 2 1 1 2 1 1 1 1 2 1 1 1 1 1
4 3 3 4 5 6 6 6 6 5 5 4 3 3 2 1 1 0 0 0 1 2 2 2 2 1 1 1 1 1 2 1 1 1 1 1 1 1 1 2 2 1 1
4 4 3 5 6 7 7 6 6 6 6 5 4 3 3 2 1 1 1 1 1 1 2 2 2 1 1 1 1 1 1 2 1 2 1 1 1 1 2 2 2 2 1
5 5 5 5 7 7 8 7 7 7 7 6 5 4 4 3 2 2 2 1 1 1 1 2 2 2 1 1 2 2 1 2 2 2 2 1 2 2 2 2 2 1 1
6 6 6 6 7 8 8 8 8 7 7 7 6 5 5 5 3 2 2 2 1 1 0 1 1 1 1 1 2 2 1 1 2 2 2 2 2 2 2 2 2 1 1
6 6 6 7 8 9 9 9 9 9 8 8 7 7 6 6 4 3 3 3 2 2 1 1 1 1 1 1 1 1 1 1 2 2 2 1 1 1 2 2 2 2 2
7 6 6 7 8 9 10 10 10 10 10 9 8 8 8 7 6 4 4 3 3 2 2 1 1 1 1 1 1 1 1 1 1 1 1 1 1 1 2 2 2 2 2
7 7 7 7 8 9 11 11 10 11 11 10 9 9 9 8 7 6 5 4 3 3 2 1 1 1 1 1 1 1 1 2 1 1 1 1 1 1 2 2 2 2 2
8 8 7 7 8 9 10 11 11 12 12 11 11 11 11 9 8 7 6 5 5 4 3 3 2 1 0 0 0 1 2 1 1 0 1 1 2 2 2 2 2 3 3
9 9 8 9 8 9 11 10 11 13 12 12 12 12 12 11 10 9 8 7 6 6 5 4 3 2 2 1 1 1 1 1 1 1 1 1 2 2 2 2 3 3 3
10 11 10 10 10 10 11 11 12 13 13 13 14 13 12 12 11 10 9 8 7 6 5 5 4 3 2 2 2 1 1 0 1 1 1 1 1 2 2 3 3 3 3
11 11 11 12 12 11 12 12 13 12 13 13 13 13 13 13 12 11 10 9 8 6 6 6 5 4 4 3 3 2 2 1 1 1 1 1 1 2 3 3 3 4 4
12 12 13 13 12 12 12 12 12 12 13 13 13 13 14 14 14 12 11 11 9 8 7 7 6 6 5 4 3 3 2 2 2 1 1 1 2 3 3 4 5 5 5
13 14 14 14 13 13 12 12 12 12 13 14 14 14 15 15 14 13 12 12 10 9 8 8 7 7 7 6 4 4 3 3 3 3 2 2 3 4 4 5 6 6 6
12 12 13 14 14 14 14 14 13 12 14 14 14 15 15 14 14 14 13 13 12 11 10 10 8 8 7 7 6 5 4 4 4 4 4 4 4 5 6 7 7 7 7
11 12 13 14 14 15 14 14 14 14 14 14 14 15 15 15 15 15 15 15 14 13 12 11 10 9 8 8 7 7 6 5 5 5 5 5 6 7 7 7 7 8 8

GEFSSE_500_meanwind_180.txt.gz
Wind_Speed
7 7 7 7 7 7 8 10 12 13 14 14 14 14 14 14 14 14 13 13 12 11 11 10 10 9 9 8 8 8 7 7 7 6 6 5 5 5 5 5 5 5 4
7 8 7 7 6 7 8 9 11 12 13 13 13 13 13 13 13 13 12 11 11 11 10 9 9 8 8 8 8 7 7 6 6 6 5 5 5 5 5 5 5 5 5
6 7 7 7 6 7 8 9 10 11 11 12 12 12 12 11 11 11 10 10 10 9 9 8 8 8 8 7 7 7 6 6 6 5 5 5 5 5 4 5 5 5 5
5 6 6 7 6 7 7 8 9 10 10 10 10 11 10 10 10 9 9 9 8 8 8 7 7 7 7 7 6 6 5 5 5 5 4 4 4 4 4 4 4 4 4
5 5 6 6 6 7 7 8 8 9 9 9 9 9 9 9 8 8 8 8 8 7 7 7 7 6 6 6 5 5 5 4 4 4 4 3 3 3 3 3 3 3 3
4 5 5 5 6 7 7 7 8 9 9 8 9 9 8 8 7 7 7 7 7 7 6 6 6 5 5 5 5 4 4 4 3 3 3 3 2 2 3 3 2 2 2
3 5 5 6 6 7 7 8 8 9 8 8 8 8 8 7 7 7 6 6 6 6 6 6 5 5 4 4 4 4 4 3 3 3 3 2 2 2 2 2 2 2 1
2 4 5 6 6 7 7 8 8 8 8 8 8 8 7 7 6 6 6 5 5 5 5 5 5 4 4 4 3 3 3 3 3 2 2 2 2 1 1 1 1 1 1
2 4 5 6 6 7 8 8 8 8 8 8 8 7 7 6 6 5 5 5 5 5 5 4 4 4 4 3 3 2 2 2 2 2 2 2 2 1 1 1 0 0 1
2 3 5 6 7 7 8 8 8 8 8 8 8 8 7 6 6 5 5 5 5 5 4 4 3 3 3 3 2 2 2 2 1 1 1 1 1 1 1 1 0 1 1
2 3 5 6 7 7 8 8 8 8 8 8 8 8 7 6 6 5 5 5 5 4 3 3 3 2 2 2 2 2 2 2 1 1 1 1 1 1 1 0 0 1 1
2 3 4 6 7 8 9 9 9 9 8 8 8 8 7 6 5 5 5 5 4 3 3 3 2 2 2 2 2 2 2 1 1 1 1 1 1 0 1 1 1 1 1
3 4 5 7 7 8 9 9 9 9 9 9 8 7 6 6 5 5 5 4 4 3 2 2 2 2 2 2 2 2 1 1 1 1 1 0 0 0 1 1 1 1 1
4 4 5 7 8 9 9 9 9 10 9 9 8 8 7 6 5 5 5 4 4 3 3 2 2 2 2 2 2 1 1 1 1 1 1 1 0 1 1 1 1 1 2
4 5 6 7 9 10 10 10 10 10 10 9 9 8 7 7 6 6 6 5 4 3 3 3 3 2 2 2 2 2 1 1 1 1 1 1 1 1 1 2 2 1 2
5 6 6 7 8 10 10 11 11 11 11 10 10 9 8 8 7 6 6 5 5 4 4 3 3 2 2 2 2 1 1 1 1 1 1 1 1 1 1 2 2 2 2
6 7 8 8 8 9 11 11 12 12 12 11 11 10 9 9 8 7 6 6 6 5 5 4 3 2 2 2 1 1 1 1 1 1 1 1 1 1 1 1 2 2 2
6 7 8 8 8 9 10 11 12 12 12 11 11 11 11 10 9 8 7 7 7 6 5 4 3 2 2 2 1 1 0 1 0 1 1 1 1 1 1 1 1 2 2
7 8 8 9 9 10 9 10 11 12 12 12 12 12 12 11 10 9 8 8 8 7 6 5 4 3 2 2 1 0 0 1 1 1 1 1 1 1 1 1 2 2 3
8 8 9 9 9 10 10 10 11 13 12 12 13 12 12 12 11 10 10 9 8 8 7 6 5 4 3 2 2 1 1 1 1 1 1 1 1 0 1 1 2 3 4
8 10 10 10 10 10 10 10 11 13 13 12 13 13 12 12 13 12 11 10 10 9 8 7 6 5 5 4 3 2 1 1 1 1 1 1 1 1 1 2 3 3 4
10 11 12 11 11 11 11 11 11 12 13 12 12 13 13 13 12 13 12 11 10 10 9 8 8 7 6 5 4 3 2 2 1 2 2 1 2 2 3 3 4 4 5
10 10 12 13 12 13 12 12 12 13 13 13 13 13 14 13 13 13 13 13 12 11 11 10 9 8 7 6 5 4 4 3 3 3 3 3 3 3 4 4 5 5 6
12 12 12 13 14 14 14 13 13 14 14 14 14 14 15 14 14 14 14 14 14 13 12 11 10 9 8 8 7 6 5 5 5 5 4 4 4 5 5 5 5 6 6
12 13 13 13 14 13 14 14 14 14 15 15 15 15 15 15 14 15 15 16 15 14 13 13 12 10 9 9 8 7 6 6 6 6 5 6 6 5 6 6 6 7 7
13 13 13 14 15 14 14 15 14 15 15 15 15 15 15 15 15 16 16 16 16 15 15 14 13 12 11 10 9 8 8 7 7 6 6 6 7 7 7 7 8 8 8

GEFSSE_500_meanwind_186.txt.gz
Wind_Speed
5 5 6 6 6 6 5 6 7 8 9 9 9 10 10 11 11 11 11 12 11 11 10 10 10 10 10 9 9 8 8 8 8 7 7 6 6 6 6 5 5 5 5
4 4 5 5 5 5 5 5 6 7 7 8 9 9 10 10 10 10 11 11 11 10 10 9 9 9 9 8 8 8 8 8 7 7 7 6 6 6 6 6 6 6 5
3 3 4 4 4 4 4 4 5 5 6 7 7 8 8 9 9 10 10 9 9 9 9 9 8 8 8 8 7 7 7 7 7 6 6 6 6 6 6 6 6 5 6
2 3 3 4 4 3 3 3 4 5 5 5 6 6 6 6 7 7 8 8 7 7 7 8 8 8 8 7 7 6 6 6 6 6 6 6 5 5 5 5 5 5 5
2 2 3 3 3 3 3 3 4 4 4 4 5 5 5 5 5 6 6 6 6 6 7 7 7 7 7 6 6 6 6 6 6 5 5 5 5 5 5 5 5 5 5
2 3 3 3 3 3 3 3 4 4 4 4 4 4 4 4 4 5 5 5 5 5 6 6 6 6 6 5 5 5 5 5 5 5 5 5 5 5 4 5 4 5 5
3 3 3 3 3 3 3 3 4 4 4 4 4 3 3 3 3 3 4 4 4 5 5 5 5 5 5 4 4 4 4 4 5 5 5 5 5 5 4 4 5 5 5
2 3 4 4 4 3 3 4 4 4 4 4 4 3 3 3 3 2 3 3 4 4 4 5 5 5 4 4 4 4 4 4 4 4 5 5 5 5 4 4 5 6 6
2 3 4 4 4 4 4 4 5 5 5 4 4 4 3 3 2 2 2 3 3 3 4 4 4 4 4 4 4 4 4 3 3 4 4 5 5 5 5 4 5 5 6
2 3 4 4 5 4 4 4 5 5 5 5 4 4 3 3 2 2 2 2 3 3 3 3 3 3 3 3 3 3 4 4 4 4 4 5 5 5 5 4 4 5 5
3 3 4 4 5 5 5 5 5 6 6 5 5 4 4 3 3 2 2 2 2 2 2 2 3 3 3 3 3 3 4 4 4 4 4 4 4 4 4 4 4 5 5
4 4 4 4 5 5 5 5 5 6 6 6 6 5 5 4 3 3 2 2 2 2 1 2 2 2 2 2 3 3 3 4 4 3 4 4 4 4 4 4 4 5 5
4 4 4 4 5 5 6 6 6 6 6 6 6 6 5 5 4 3 2 2 2 1 1 1 1 2 2 2 3 3 3 3 3 3 3 4 4 4 4 4 4 5 5
6 5 5 5 5 5 6 6 7 6 7 7 7 6 6 5 5 4 3 2 2 1 1 0 1 2 1 2 2 3 3 3 3 2 2 3 4 4 4 5 5 5 5
7 6 5 5 5 6 6 6 7 7 7 8 7 7 6 5 5 5 4 4 3 2 1 1 1 1 1 2 2 3 3 3 2 2 3 3 3 4 4 4 4 5 5
8 6 6 6 5 6 7 7 8 8 8 8 8 7 7 6 5 5 5 4 4 3 2 2 1 1 1 1 2 2 3 3 2 2 2 2 3 4 4 4 4 5 5
8 7 7 7 7 7 8 9 8 8 8 8 8 8 8 7 6 6 5 5 5 4 3 2 2 1 1 0 1 2 3 3 2 2 2 2 3 3 4 4 4 5 5
8 8 8 7 8 8 8 9 9 9 8 8 8 8 8 8 7 6 6 6 5 5 4 3 2 2 1 1 0 1 2 2 2 2 2 2 2 3 4 4 5 5 5
9 8 8 8 8 8 8 9 9 10 9 9 9 9 9 8 8 7 6 7 7 6 5 4 3 3 2 2 1 1 2 2 2 2 1 1 1 2 3 4 4 4 5
10 9 9 9 9 9 8 9 10 10 10 10 9 10 10 9 9 8 7 7 7 7 6 5 4 4 4 3 2 2 2 2 2 2 1 1 1 2 2 3 4 4 4
11 10 10 10 10 10 9 9 9 10 11 11 10 11 11 11 10 9 8 8 8 8 7 7 6 6 5 4 3 3 3 3 2 2 1 1 2 2 2 3 4 4 5
12 12 11 11 11 11 10 10 10 10 11 11 10 11 11 11 11 10 10 9 9 9 8 8 7 7 6 5 5 4 4 3 2 2 1 1 2 2 2 2 3 4 5
13 13 12 12 12 11 11 12 12 12 11 11 11 11 11 11 11 11 11 10 10 10 9 9 9 8 8 7 6 5 5 4 3 3 2 2 2 3 3 4 4 4 5
13 14 14 13 13 12 12 12 12 12 12 11 11 11 11 12 12 12 12 11 12 11 11 10 10 10 9 9 8 7 6 5 4 3 3 3 3 4 5 5 5 5 5
14 14 14 14 14 13 13 13 12 12 12 12 12 12 12 12 12 13 13 12 12 12 12 11 11 11 10 10 9 8 7 7 6 5 5 4 5 5 6 6 5 6 6
15 15 15 14 14 14 13 13 13 13 13 12 13 13 12 12 13 13 13 13 13 13 13 13 12 12 11 11 10 10 9 9 8 7 6 6 6 7 7 7 7 7 7